Regional Weather Roundup
Issued by NWS

Home | Current Version | Previous Version | Graphics & Text | Print | Product List | Glossary Off
Versions: 1 2 3 4 5 6 7 8 9 10 11 12 13 14 15 16 17 18 19 20 21 22 23 24 25 26 27 28 29 30 31 32 33 34 35 36 37 38 39 40 41 42 43 44 45 46 47 48 49 50

000
ASUS43 KTOP 220359
RWRKS

WEATHER ROUNDUP FOR KANSAS
NATIONAL WEATHER SERVICE GOODLAND KS
1000 PM CST SUN DEC 21 2014

NOTE:  "FAIR" INDICATES FEW OR NO CLOUDS BELOW 12,000 FEET WITH NO
SIGNIFICANT WEATHER AND/OR OBSTRUCTIONS TO VISIBILITY.

KSZ001>006-013>018-027>032-041>047-220500-
NORTHWEST KANSAS

CITY           SKY/WX    TMP DP  RH WIND       PRES   REMARKS
GOODLAND       CLOUDY    43  36  76 W16       29.54S
HAYS           CLOUDY    41  34  75 S9        29.58S
HILL CITY      CLOUDY    42  37  82 S6        29.54F
RUSSELL        CLOUDY    42  41  96 S12       29.57F
$$

KSZ061>065-074>080-084>089-220500-
SOUTHWEST KANSAS

CITY           SKY/WX    TMP DP  RH WIND       PRES   REMARKS
DODGE CITY     CLOUDY    41  38  89 S17       29.57F FOG
ELKHART          N/A    N/A N/A N/A MISG        N/A
GARDEN CITY    MOCLDY    35  34  96 SW6       29.56S
GREAT BEND     CLOUDY    43  39  87 S14       29.60F
LIBERAL        CLEAR     37  30  75 SE3       29.57R
$$

KSZ066>073-081>083-090>101-220500-
SOUTHEAST KANSAS

CITY           SKY/WX    TMP DP  RH WIND       PRES   REMARKS
CHANUTE        CLOUDY    44  41  89 S15       29.76F
COFFEYVILLE    CLOUDY    45  40  82 SE12      29.77F
HUTCHINSON     CLOUDY    45  42  89 S18       29.65F FOG
MEDICINE LODGE   N/A     44  44 100 SE9G21    29.63S
NEWTON         CLOUDY    43  37  81 S20       29.67F
PARSONS        CLOUDY    46  41  82 S9G16     29.78S
WICHITA INTL   CLOUDY    45  42  89 S17       29.66F
WICHITA JABRA  CLOUDY    44  42  93 S16       29.67F
WICHITA MCCONL CLOUDY    45  43  93 SE16      29.67F
WINFIELD       CLOUDY    44  42  93 SE16      29.70F
$$

KSZ007>012-019>026-033>040-048>060-102>105-220500-
NORTHEAST KANSAS

CITY           SKY/WX    TMP DP  RH WIND       PRES   REMARKS
CONCORDIA      CLOUDY    43  43 100 S10       29.63F
EMPORIA        CLOUDY    43  41  93 S17       29.70F
LAWRENCE       CLOUDY    44  40  85 SE15      29.75F
MANHATTAN      CLOUDY    44  43  96 S13       29.68F
OLATHE IND     CLOUDY    43  39  86 SE12      29.77R
OLATHE EXE     CLOUDY    43  39  86 S14       29.77R
SALINA         CLOUDY    45  43  93 S15       29.64F FOG
TOPEKA BILLARD CLOUDY    46  42  86 S13G22    29.73F
TOPEKA FORBES  CLOUDY    46  40  79 S13       29.72F
$$


USA.gov is the U.S. government's official web portal to all federal, state and local government web resources and services.